This is the latest recevied weather packets stored in our database for station/object KO4ZGL-13. If no packets are shown the sender has not sent any weather packets the latest 10 day(s).
| Time | Temp. | Humidity | Pressure | Rain* | Wind** | Luminosity | Snow |
|---|---|---|---|---|---|---|---|
| 1787955588 | 26.11° C | 98% | 1017.3 hPa | 0 mm | - | 22 W/m² | - |
| 1787955283 | 26.11° C | 98% | 1017.4 hPa | 0 mm | - | 23 W/m² | - |
| 1787954978 | 26.11° C | 98% | 1017.4 hPa | 0 mm | - | 25 W/m² | - |
| 1787954674 | 26.11° C | 97% | 1017.3 hPa | 0 mm | - | 26 W/m² | - |
| 1787954373 | 26.11° C | 97% | 1017.2 hPa | 0 mm | - | 27 W/m² | - |
| 1787954069 | 26.11° C | 97% | 1017.3 hPa | 0 mm | - | 34 W/m² | - |
| 1787953767 | 26.11° C | 97% | 1017.2 hPa | 0 mm | - | 41 W/m² | - |
| 1787953463 | 26.67° C | 97% | 1017.3 hPa | 0 mm | - | 47 W/m² | - |
| 1787953161 | 26.67° C | 97% | 1017.1 hPa | 0 mm | - | 46 W/m² | - |
| 1787952859 | 26.67° C | 96% | 1017.1 hPa | 0 mm | - | 33 W/m² | - |
| 1787952554 | 26.67° C | 96% | 1017 hPa | 0 mm | - | 39 W/m² | - |
| 1787952253 | 26.67° C | 96% | 1017.1 hPa | 0 mm | - | 49 W/m² | - |
| 1787951949 | 26.67° C | 96% | 1016.9 hPa | 0 mm | - | 58 W/m² | - |
| 1787951645 | 26.67° C | 96% | 1016.9 hPa | 0 mm | - | 53 W/m² | - |
| 1787951341 | 26.67° C | 96% | 1017 hPa | 0 mm | - | 68 W/m² | - |
| 1787951036 | 26.67° C | 96% | 1017.1 hPa | 0 mm | - | 71 W/m² | - |
| 1787950731 | 27.22° C | 96% | 1017.2 hPa | 0 mm | - | 69 W/m² | - |
| 1787950427 | 26.67° C | 96% | 1017.3 hPa | 0 mm | - | 65 W/m² | - |
| 1787950124 | 26.67° C | 96% | 1017 hPa | 0 mm | - | 67 W/m² | - |
| 1787949819 | 27.22° C | 96% | 1017.1 hPa | 0 mm | - | 88 W/m² | - |
| 1787949519 | 26.67° C | 96% | 1017 hPa | 0 mm | - | 108 W/m² | - |
| 1787949214 | 26.67° C | 96% | 1017.2 hPa | 0 mm | - | 123 W/m² | - |
| 1787948909 | 26.67° C | 96% | 1017.1 hPa | 0 mm | - | 129 W/m² | - |
| 1787948605 | 26.67° C | 96% | 1017.3 hPa | 0 mm | - | 116 W/m² | - |
| 1787948300 | 26.67° C | 96% | 1017.4 hPa | 0 mm | - | 104 W/m² | - |
* Rain latest hour (hover to see other rain measurements)
** Current wind speed in m/s (hover to see current wind gust speed)